Location: Pardubice
(50.0330°N, 15.7830°E)
Time: 11:04:30
(UTC+02:00)

Vanguard 3 - Visible Passes

Search period start: 07 October 2024 00:00
Search period end: 17 October 2024 00:00
Orbit: 507 x 3224 km, 33.3° (Epoch: 06 October)

Date Brightness Start Highest point End Pass type
(mag) Time Alt. Az. Time Alt. Az. Time Alt. Az.
07 Oct 9.7 03:11:29 32° SSE 03:11:29 32° SSE 03:22:52 10° ESE visible
07 Oct 9.9 05:15:36 21° SW 05:22:40 35° S 05:37:33 10° SE visible
08 Oct 10.4 01:56:45 17° ESE 01:56:45 17° ESE 02:00:21 10° ESE visible
08 Oct 9.5 04:00:52 33° S 04:02:31 35° S 04:15:49 10° ESE visible
08 Oct 10.2 06:05:00 11° WSW 06:14:58 30° SSW 06:29:04 10° SSE visible
09 Oct 10.0 02:46:10 26° SE 02:46:10 26° SE 02:53:42 10° ESE visible
09 Oct 9.7 04:50:18 26° SW 04:54:39 32° S 05:08:09 10° SE visible
10 Oct 9.7 03:35:37 31° S 03:35:37 31° S 03:46:31 10° ESE visible
10 Oct 10.0 05:39:44 16° WSW 05:46:52 27° SSW 05:59:29 10° SSE visible
11 Oct 10.4 02:20:57 18° SE 02:20:57 18° SE 02:24:36 10° ESE visible
11 Oct 9.6 04:25:05 28° SSW 04:26:47 29° S 04:38:40 10° SE visible
11 Oct 10.4 06:31:03 10° WSW 06:39:03 19° SSW 06:49:12 10° S visible
12 Oct 10.0 03:10:27 24° SSE 03:10:27 24° SSE 03:17:14 10° SE visible
12 Oct 9.9 05:14:35 19° SW 05:18:53 23° SSW 05:29:47 10° SSE visible
13 Oct 9.8 03:59:58 25° S 03:59:58 25° S 04:09:10 10° SE visible
13 Oct 10.3 06:04:36 10° WSW 06:11:00 16° SSW 06:19:00 10° S visible
14 Oct 10.4 02:45:23 16° SE 02:45:23 16° SE 02:48:00 10° SE visible
14 Oct 10.0 04:49:31 19° SSW 04:51:03 20° SSW 04:59:58 10° SSE visible
15 Oct 10.2 03:34:56 18° SSE 03:34:56 18° SSE 03:39:41 10° SE visible
15 Oct 10.3 05:39:04 11° SW 05:43:05 13° SSW 05:48:20 10° S visible
16 Oct 10.2 04:24:32 16° S 04:24:32 16° S 04:30:02 10° SSE visible
